Tracy, MN

5:36 PM CST on November 14, 2019 (GMT -0600)
Tracy

Weather History for KTKC - October, 2019

Change the Weather History Date:

Tuesday, October 22, 2019

  Actual Average (WUND) Record (WUND)
Temperature  
Mean Temperature 42 °F -  
Max Temperature 48 °F - - (-1)
Min Temperature 37 °F - - (-1)
Degree Days  
Heating Degree Days 22    
Moisture  
Dew Point 33 °F    
Average Humidity 73    
Maximum Humidity 93    
Minimum Humidity 54    
Precipitation  
Precipitation 0.00 in - - ()
Sea Level Pressure  
Sea Level Pressure 29.67 in    
Wind  
Wind Speed 24 mph (WNW)    
Max Wind Speed 33 mph    
Max Gust Speed 46 mph    
Visibility 10 miles    
Events      
Averages and records for this station are not official NWS values.
T = Trace of Precipitation, MM = Missing Value Source: NWS Daily Summary

Daily Weather History Graph

Daily Weather History Graph

Search for Another Location

Airport or City:

Astronomy

Oct. 22, 2019 Rise Set
Actual Time 7:45 AM CDT 6:27 PM CDT
Civil Twilight 7:16 AM CDT 6:56 PM CDT
Nautical Twilight 6:42 AM CDT 7:30 PM CDT
Astronomical Twilight 6:09 AM CDT 8:03 PM CDT
Moon 12:38 AM CDT (10/22) 3:54 PM CDT (10/22)
Length of Visible Light 11h 40m
Length of Day
10h 41m
Last Quarter, 37% of the Moon is Illuminated
Oct 22
Last Quarter
Oct 27
New
Nov 4
First Quarter
Nov 12
Full
Nov 19
Last Quarter

Hourly Weather History & Observations

Time (CDT) Temp. Windchill Dew Point Humidity Pressure Visibility Wind Dir Wind Speed Gust Speed Precip Events Conditions
12:59 AM 41.0 °F 29.5 °F 39.2 °F 93% 29.48 in 10.0 mi NW 32.2 mph 46.0 mph N/A   Drizzle
1:59 AM 41.0 °F 29.8 °F 39.2 °F 93% 29.51 in 10.0 mi NW 29.9 mph 44.9 mph N/A   Light Drizzle
2:59 AM 41.0 °F 30.9 °F 37.4 °F 87% 29.54 in 10.0 mi NW 24.2 mph 34.5 mph N/A   Overcast
3:59 AM 41.0 °F 30.2 °F 37.4 °F 87% 29.55 in 10.0 mi NW 27.6 mph 38.0 mph N/A   Overcast
4:59 AM 41.0 °F 30.9 °F 37.4 °F 87% 29.57 in 10.0 mi NW 24.2 mph 34.5 mph N/A   Overcast
5:59 AM 41.0 °F 30.5 °F 35.6 °F 81% 29.60 in 10.0 mi WNW 26.5 mph 34.5 mph N/A   Overcast
6:59 AM 39.2 °F 29.0 °F 35.6 °F 87% 29.61 in 10.0 mi WNW 21.9 mph 29.9 mph N/A   Overcast
7:59 AM 39.2 °F 28.5 °F 33.8 °F 81% 29.63 in 10.0 mi WNW 24.2 mph 32.2 mph N/A   Overcast
8:59 AM 39.2 °F 28.7 °F 32.0 °F 75% 29.65 in 10.0 mi NW 23.0 mph 28.8 mph N/A   Overcast
9:59 AM 39.2 °F 29.8 °F 32.0 °F 75% 29.67 in 10.0 mi WNW 18.4 mph 31.1 mph N/A   Mostly Cloudy
10:59 AM 41.0 °F 30.7 °F 32.0 °F 70% 29.69 in 10.0 mi WNW 25.3 mph 35.7 mph N/A   Mostly Cloudy
11:59 AM 44.6 °F 35.5 °F 32.0 °F 61% 29.69 in 10.0 mi NW 25.3 mph 38.0 mph N/A   Clear
12:59 PM 46.4 °F 36.7 °F 32.0 °F 57% 29.70 in 10.0 mi NW 33.4 mph 42.6 mph N/A   Clear
1:59 PM 48.2 °F - 32.0 °F 54% 29.70 in 10.0 mi WNW 28.8 mph 35.7 mph N/A   Scattered Clouds
2:59 PM 48.2 °F - 32.0 °F 54% 29.70 in 10.0 mi NW 24.2 mph 36.8 mph N/A   Scattered Clouds
3:59 PM 48.2 °F - 32.0 °F 54% 29.71 in 10.0 mi WNW 20.7 mph 33.4 mph N/A   Mostly Cloudy
4:59 PM 48.2 °F - 32.0 °F 54% 29.73 in 10.0 mi WNW 21.9 mph 28.8 mph N/A   Scattered Clouds
5:59 PM 46.4 °F 40.7 °F 32.0 °F 57% 29.74 in 10.0 mi WNW 12.7 mph 24.2 mph N/A   Clear
6:59 PM 42.8 °F 38.0 °F 32.0 °F 66% 29.76 in 10.0 mi WNW 8.1 mph - N/A   Clear
7:59 PM 41.0 °F 37.1 °F 32.0 °F 70% 29.77 in 10.0 mi West 5.8 mph - N/A   Clear
8:59 PM 39.2 °F 35.9 °F 32.0 °F 75% 29.78 in 10.0 mi West 4.6 mph - N/A   Clear
9:59 PM 37.4 °F 33.8 °F 32.0 °F 81% 29.78 in 10.0 mi West 4.6 mph - N/A   Clear
10:59 PM 37.4 °F 33.8 °F 30.2 °F 75% 29.78 in 10.0 mi West 4.6 mph - N/A   Clear
11:59 PM 37.4 °F 33.8 °F 30.2 °F 75% 29.78 in 10.0 mi West 4.6 mph - N/A   Clear